Key West, FL

11:51 AM EST on March 04, 2015 (GMT -0500)
Key West Naval Air Station | Change Station
CLOSE
Current Station
Airport
Location: Key West NAF,
Elevation: 7 ft
Nearby Weather Stations

Elev 7 ft 24.58 °N, 81.69 °W | Updated 58 minutes ago

Clear
Clear
81 °F
Feels Like 84 °F
N
16
Wind Variable Wind from ESE

Today
High -- | Low -- °F
--% Chance of Precip.
Yesterday
High -- | Low -- °F
Precip. -- in
6:46 AM 6:30 PM
Waxing Gibbous, 99% visible
Pressure 30.14 in
Visibility 10.0 miles
Clouds Few 2000 ft
Heat Index 84 °F
Dew Point 70 °F
Humidity 69%
Rainfall 0.00 in
Snow Depth Not available.
UV 9 out of 12
Pollen 10.30 out of 12
Air Quality Not available.
Flu Activity Not available.
METAR KNQX 041553Z 12014KT 10SM FEW020 27/21 A3015 RMK AO2 SLP207 T02720211 $

More Conditions Fewer Conditions

Pressure 30.14 in
Visibility 10.0 miles
Clouds Few 2000 ft
Heat Index 84 °F
Dew Point 70 °F
Humidity 69%
Rainfall 0.00 in
Snow Depth Not available.
UV 9 out of 12
Pollen 10.30 out of 12
Air Quality Not available.
Flu Activity Not available.
METAR KNQX 041553Z 12014KT 10SM FEW020 27/21 A3015 RMK AO2 SLP207 T02720211 $

More Conditions Fewer Conditions

10-Day Weather Forecast

Almanac

Astronomy

Mar. 04, 2015 Rise Set
Actual Time
Civil Twilight
Nautical Twilight
Astronomical Twilight
Moon
Length of Visible Light
Length of Day
Tomorrow will be .
, % of the Moon is Illuminated

Today's Extremes

State Highs State Lows

Community

WunderPhotos

Upload Photos

1,802,503 photos uploaded!

WunderBlogs® & News

Nearby

Air Quality

  Air Quality AQ Index Pollutant
Not available.

Snow Depth

Station Depth Elevation

Earthquake Activity

City Distance Mag. Time & Date
Minimum magnitude displayed is 2.5.

Coastal Water Temperatures

Place Temperature

Nearby Weather Stations